Flag for Spain Weather past 2 weeks in Barcelona, Barcelona, Spain

Now
66 °F

Passing clouds.


Feels Like: 66 °F
Forecast: 69 / 80 °F
Wind: 12 mph from North

Location: Barcelona Airport

Current Time: Sep 15, 2014 at 7:06:43 AM

Latest Report: Sep 15, 2014 at 6:30 AM


Visibility: N/A

Pressure: 29.89 "Hg

Humidity: 83%

Dew point: 61 °F

Location of BarcelonaLocation

Historic Weather in Barcelona — Graph

°F

Barcelona temperature yesterday

Maximum temperature yesterday: 81 °F (at 1:30 PM)
Minimum temperature yesterday: 72 °F (at 4:30 AM)
Average temperature yesterday: 75 °F

Past Weeks' High & Low Weather Summary

 TemperatureHumidityPressure
High82 °F (Aug 31, 12:00 PM)100% (Sep 15, 1:00 AM)30.07 "Hg (Sep 15, 1:00 AM)
Low64 °F (Sep 15, 12:30 AM)48% (Aug 31, 12:00 PM)29.83 "Hg (Sep 11, 4:00 AM)
Average76 °F75%29.94 "Hg
* Reported Aug 31 6:00 AM — Sep 15 6:00 AM, Barcelona, Weather by CustomWeather, © 2014

Note: Actual official high and low records may vary slightly from our data, if they occured in-between our weather recording intervals... More about our weather records

Advertising

Barcelona weather history for previous 24 hours

 ConditionsComfort  
Time TempWeatherWind HumidityBarometerVisibility
6:00 AM
Sep 15
66 °FPassing clouds.13 mph83%29.89 "HgN/A
5:30 AM66 °FPassing clouds.13 mph83%29.89 "HgN/A
5:00 AM66 °FPassing clouds.10 mph88%29.89 "HgN/A
4:30 AM66 °FPassing clouds.7 mph88%29.89 "HgN/A
4:00 AM66 °FPassing clouds.6 mph88%29.89 "HgN/A
3:30 AM68 °FPassing clouds.8 mph83%29.89 "HgN/A
3:00 AM68 °FPassing clouds.7 mph88%29.92 "HgN/A
2:30 AM68 °FPassing clouds.1 mph94%29.92 "HgN/A
2:00 AM66 °FPassing clouds.5 mph94%29.92 "HgN/A
1:30 AM66 °FLight rain. Passing clouds.9 mph94%29.92 "HgN/A
1:00 AM64 °FThunderstorms. Passing clouds.12 mph100%29.92 "Hg2 mi
12:30 AM64 °FThunderstorms. Passing clouds.36 mph94%29.95 "Hg1 mi
12:00 AM75 °FPassing clouds.7 mph89%29.92 "HgN/A
11:30 PM
Sep 14
75 °FPassing clouds.7 mph83%29.89 "HgN/A
11:00 PM75 °FPassing clouds.7 mph83%29.89 "HgN/A
10:30 PM75 °FPassing clouds.9 mph89%29.92 "HgN/A
10:00 PM75 °FPassing clouds.9 mph89%29.92 "HgN/A
9:30 PM75 °FPassing clouds.8 mph89%29.92 "HgN/A
9:00 PM75 °FPartly sunny.9 mph83%29.89 "HgN/A
8:30 PM75 °FPartly sunny.9 mph83%29.89 "HgN/A
8:00 PM77 °FPartly sunny.10 mph79%29.89 "HgN/A
7:30 PM75 °FScattered clouds.10 mph83%29.89 "HgN/A
7:00 PM77 °FPassing clouds.9 mph79%29.89 "HgN/A
6:30 PM77 °FPassing clouds.7 mph79%29.89 "HgN/A
6:00 PM75 °FScattered clouds.10 mph83%29.89 "HgN/A
5:30 PM77 °FScattered clouds.8 mph79%29.89 "HgN/A
5:00 PM77 °FScattered clouds.8 mph79%29.89 "HgN/A
4:30 PM79 °FScattered clouds.9 mph74%29.89 "HgN/A
4:00 PM81 °FPassing clouds.10 mph70%29.89 "HgN/A
3:30 PM81 °FPassing clouds.9 mph70%29.92 "HgN/A
3:00 PM79 °FPassing clouds.13 mph74%29.92 "HgN/A
2:30 PM79 °FPassing clouds.12 mph74%29.92 "HgN/A
2:00 PM79 °FScattered clouds.12 mph70%29.95 "HgN/A
1:30 PM81 °FScattered clouds.10 mph66%29.95 "HgN/A
1:00 PM79 °FScattered clouds.10 mph70%29.95 "HgN/A
12:30 PM79 °FPartly sunny.10 mph70%29.95 "HgN/A
12:00 PM77 °FBroken clouds.10 mph79%29.95 "HgN/A
11:30 AM79 °FBroken clouds.9 mph70%29.95 "HgN/A
11:00 AM79 °FPartly sunny.10 mph70%29.95 "HgN/A
10:30 AM77 °FScattered clouds.8 mph74%29.95 "HgN/A
10:00 AM75 °FScattered clouds.3 mph74%29.95 "HgN/A
9:30 AM73 °FScattered clouds.7 mph78%29.95 "HgN/A
9:00 AM73 °FPartly sunny.8 mph78%29.95 "HgN/A
8:30 AM72 °FPartly sunny.7 mph83%29.95 "HgN/A
8:00 AM72 °FPassing clouds.7 mph83%29.95 "HgN/A
7:30 AM72 °FPassing clouds.7 mph83%29.95 "HgN/A
7:00 AM72 °FPassing clouds.7 mph83%29.95 "HgN/A
Weather by CustomWeather, © 2014

See weather overviewHow to use our weather pages